Zurück zum Katalog

STARLINK-30360

AktivKommunikationVLEO
NORAD 57776·PAYLOAD·🇺🇸 United States

Gestartet Sep 4, 2023 von Cape Canaveral Space Force Station

Loading…

Nächste Überflüge (nächste 24 Stunden)

TLE

AktuellSource: CelesTrak SupGP

Epoche: Sep 14, 2026, 20:46 UTC

1 57776C 23134F   26257.86576389  .00028075  00000+0  10168-2 0  2575
2 57776  43.0030 206.4099 0001346 261.6578 165.6965 15.27567053    13

Verfolge STARLINK-30360 in Echtzeit mit AllMySat

Download on the App Store